GFSNW_sfc_rhum_219.txt.gz
RH
80 78 67 62 66 73 82 82 27 57 71 70 92 80 69 67 66 61 63 66 68 76 73 76 65 61 66 58 62 65 68 78 90 73 58 62 80 76 77 93 85 92 95 82
84 78 66 61 65 77 92 80 78 70 62 60 83 68 66 68 64 66 65 68 68 68 78 74 72 64 63 65 60 70 68 68 87 59 67 69 73 69 62 70 76 86 90 70
86 80 68 62 63 68 88 68 46 64 82 84 76 78 69 66 66 68 67 71 69 78 82 74 73 71 70 65 65 67 62 79 72 75 61 78 79 74 76 78 90 82 74 66
87 81 70 65 63 67 80 72 67 81 43 67 80 78 76 74 67 66 65 78 76 82 86 84 82 81 70 62 66 74 73 89 88 83 79 81 79 81 79 84 75 91 63 65
87 84 75 68 66 75 78 68 64 85 76 73 74 72 65 75 75 76 76 86 83 78 84 82 85 72 79 75 78 81 78 90 88 82 73 81 72 59 61 66 69 75 70 74
89 84 77 72 68 69 79 92 88 42 42 70 67 61 64 76 74 79 82 81 73 77 74 65 58 58 57 64 77 77 76 86 89 87 79 67 58 49 55 57 74 75 88 76
90 84 79 75 71 70 72 84 73 40 20 59 64 61 71 78 73 76 74 58 60 54 54 54 56 67 66 65 67 66 75 84 84 96 86 88 43 48 54 67 85 85 69 54
90 87 80 72 71 75 78 90 71 62 39 62 61 56 61 62 66 66 57 53 49 58 62 67 64 52 53 65 67 67 66 78 88 98 97 71 58 64 66 69 93 96 80 56
93 89 82 75 72 76 84 89 81 67 63 47 62 62 62 71 77 68 61 57 56 59 67 69 72 59 56 55 80 68 68 78 82 94 89 91 76 82 61 63 89 75 78 78
94 90 84 79 74 77 86 96 82 87 77 73 67 68 70 64 70 69 71 70 58 57 64 59 65 71 79 80 91 93 89 92 90 90 90 86 88 75 64 86 92 78 74 77
94 88 83 84 83 84 89 99 91 90 96 86 78 72 72 73 70 69 61 61 70 71 73 72 81 95 94 92 84 81 88 95 97 93 97 94 65 58 70 76 76 70 61 46
93 89 84 83 82 85 87 99 92 85 90 82 78 71 65 68 63 72 83 68 74 75 93 98 96 89 92 86 84 67 64 71 79 89 82 53 46 51 54 60 62 50 49 46
89 86 83 82 83 83 87 98 95 88 86 76 71 65 53 59 65 65 88 88 76 79 80 91 89 95 86 92 89 82 72 71 76 63 54 54 54 54 57 56 59 55 52 64
88 80 82 86 83 84 86 97 93 88 88 83 58 48 50 46 48 66 67 66 72 81 86 93 96 94 79 92 76 85 70 72 71 70 59 68 59 55 62 64 65 65 59 58
82 85 86 83 82 87 91 94 91 78 58 79 74 62 58 50 49 60 72 74 81 86 83 95 96 92 89 90 88 94 78 84 90 91 73 80 71 64 63 71 67 62 65 66
89 82 81 84 87 78 83 84 75 81 73 82 86 75 71 59 57 58 73 78 84 87 85 89 88 80 78 96 94 89 89 87 83 92 74 71 69 65 66 68 69 66 66 65
85 89 84 77 72 88 81 72 73 77 82 86 90 92 66 65 70 79 74 73 78 83 87 95 85 86 85 99 99 92 87 82 73 66 76 71 70 77 69 70 65 65 63 63
82 79 72 72 68 73 88 89 73 80 89 89 95 92 84 64 72 82 84 85 90 94 91 97 98 88 95 98 93 90 82 77 78 75 72 77 73 70 66 65 66 72 75 71
76 74 70 80 90 92 93 76 77 88 85 95 95 87 88 76 88 86 89 89 99 93 98 96 90 96 97 92 96 94 88 88 87 82 78 74 75 74 70 73 76 77 74 71
73 73 85 98 97 76 68 79 83 93 96 96 96 88 91 85 94 93 96 97 98 98 90 91 98 93 94 87 89 89 84 85 86 92 86 84 83 80 81 80 77 81 83 81
90 96 99 96 70 80 81 94 92 96 94 97 92 87 92 85 94 96 92 98 96 100 93 96 96 96 92 91 87 82 89 92 91 85 82 82 88 92 90 84 80 79 82 87
86 86 85 88 90 92 83 97 94 92 89 95 97 94 92 95 92 97 97 99 97 99 89 98 96 96 92 89 85 88 92 92 87 83 85 83 80 86 92 90 91 89 87 89
84 86 85 87 94 86 75 92 96 97 95 98 93 92 94 93 95 98 98 97 98 92 98 98 96 94 86 94 90 90 88 85 82 84 82 81 84 78 86 92 84 87 91 92
83 80 77 86 90 91 92 92 95 97 95 94 95 97 96 99 93 99 100 94 95 98 98 96 98 98 96 93 90 93 96 91 91 92 92 91 89 88 82 91 93 93 92 92
87 83 84 94 92 97 98 98 98 98 96 96 96 96 95 98 96 97 95 96 99 96 95 98 99 98 98 99 98 98 96 95 95 94 94 94 92 91 89 92 94 93 92 93
90 89 95 92 95 98 98 98 99 96 97 96 94 98 98 98 99 97 100 98 98 96 99 98 100 99 100 100 99 98 97 96 96 95 95 94 93 94 95 87 90 94 94 93
90 98 90 93 95 96 97 97 99 96 94 99 98 100 94 95 100 100 97 98 97 99 98 99 100 100 100 100 97 96 96 96 95 94 94 94 91 88 88 92 94 95 95 95

GFSNW_sfc_rhum_222.txt.gz
RH
85 79 76 65 64 72 79 68 26 44 67 61 89 77 70 65 68 62 66 71 73 79 79 78 73 70 76 69 65 74 74 81 89 68 63 64 78 80 79 85 88 92 96 82
87 84 76 61 62 76 88 76 78 66 55 48 76 70 68 69 63 66 69 72 72 75 80 78 76 73 68 68 70 78 71 71 88 58 64 68 72 72 68 76 75 94 94 73
89 87 79 65 58 69 85 62 44 59 81 84 73 73 67 69 67 69 69 75 74 80 83 79 80 79 73 65 72 64 65 83 74 72 55 76 85 73 78 83 90 83 79 73
89 89 83 69 61 69 71 66 57 81 42 51 81 77 76 73 66 70 73 83 81 83 88 84 83 83 71 62 72 78 78 91 90 84 81 80 76 77 82 91 84 95 79 79
91 90 85 75 66 72 71 44 59 86 66 77 76 67 59 69 73 77 77 80 82 82 85 80 84 79 81 70 76 82 69 87 86 92 74 75 71 62 60 59 65 78 78 80
93 92 87 80 73 69 68 89 75 38 37 68 67 55 54 67 74 80 83 83 81 81 77 76 70 67 64 62 71 74 69 77 86 85 82 73 62 53 54 62 96 90 96 87
95 93 90 83 76 72 68 78 64 31 20 52 57 56 62 77 75 74 78 62 71 60 57 56 62 74 72 71 70 62 72 91 87 97 86 77 44 62 60 93 91 96 85 74
96 95 93 85 75 75 75 87 64 41 27 42 49 52 67 70 64 67 62 59 53 61 63 64 61 54 59 67 69 72 69 74 84 95 97 70 77 82 79 84 93 87 94 85
97 96 92 86 79 79 88 88 74 57 50 50 49 54 56 64 69 69 63 56 55 55 61 64 66 56 57 56 83 73 71 82 80 96 96 89 87 72 69 70 95 77 78 79
96 96 94 89 84 83 92 98 88 91 78 74 73 69 78 65 70 68 74 66 58 56 62 56 64 70 78 77 88 95 91 94 97 95 86 85 66 66 60 91 93 69 74 73
97 97 94 90 88 86 89 99 96 93 97 97 89 80 76 74 74 76 64 57 68 71 69 67 72 86 92 92 86 86 91 93 97 95 98 95 51 52 55 70 67 69 60 60
98 95 92 89 87 85 88 98 95 94 98 99 89 79 66 70 65 68 77 64 70 71 87 94 85 85 94 86 75 64 71 67 86 91 83 55 51 52 51 60 67 68 68 64
96 92 88 87 86 81 83 97 96 96 100 97 92 73 52 55 63 65 80 85 72 76 79 84 84 84 77 86 83 82 73 72 75 61 52 62 63 62 65 70 67 67 68 67
93 88 85 85 82 80 83 96 97 96 98 93 59 54 53 49 50 68 64 67 74 79 84 88 89 84 74 87 74 78 69 76 80 78 69 76 68 66 67 64 66 70 62 62
89 87 85 84 85 83 92 96 96 88 77 84 85 64 62 58 54 71 72 72 77 84 88 95 94 87 86 89 85 95 83 90 96 91 82 91 80 64 64 73 70 68 71 72
88 86 90 87 85 83 92 98 93 88 80 85 88 72 64 59 56 70 79 80 82 81 84 93 87 79 78 91 87 90 90 88 88 93 78 77 73 68 68 73 73 70 68 66
90 88 86 86 82 88 83 75 76 77 79 79 89 90 66 63 73 79 72 73 80 84 88 92 82 84 85 94 97 93 90 89 82 77 81 79 74 80 72 72 66 68 66 66
88 87 88 85 74 74 90 89 73 78 87 86 93 90 87 68 76 90 85 82 89 92 88 95 95 87 94 99 94 92 90 87 85 82 79 84 78 73 71 66 68 76 76 71
89 84 72 78 88 89 98 69 74 85 83 94 95 88 92 78 88 87 94 90 99 92 96 92 87 93 97 91 96 95 94 94 92 87 82 77 79 75 72 76 78 82 80 76
67 76 87 98 96 76 64 74 83 91 95 95 96 92 92 88 95 95 94 96 97 99 89 93 98 92 90 91 92 92 90 92 92 94 87 86 84 81 84 82 78 77 81 86
92 97 99 98 66 78 78 94 89 95 89 97 94 89 96 87 94 96 91 97 97 99 93 96 96 95 92 92 90 89 92 93 94 92 87 85 90 93 91 85 80 79 80 88
86 90 84 86 89 91 79 96 94 93 91 96 98 98 89 96 91 96 97 98 96 99 91 98 97 95 93 91 87 90 93 94 93 87 88 86 82 86 90 88 89 88 88 88
84 85 83 87 94 81 69 82 95 96 96 97 96 96 93 95 93 98 97 96 97 88 97 96 95 94 89 95 91 91 90 89 84 84 82 83 86 81 83 92 85 86 88 88
83 81 81 88 89 89 89 89 95 97 96 94 95 98 96 98 96 99 96 92 92 97 98 96 98 98 97 95 90 95 96 93 92 93 94 93 91 91 83 87 91 93 92 92
84 83 83 94 93 98 98 98 96 96 95 97 97 96 93 97 96 96 94 96 100 96 96 98 98 98 98 99 98 98 98 98 98 96 96 95 94 94 92 90 94 92 90 90
90 90 95 92 95 98 98 98 99 96 95 95 93 97 94 99 98 95 99 97 98 96 98 98 99 98 100 100 100 99 99 100 99 96 96 95 94 95 95 94 91 91 93 92
91 98 90 94 96 98 98 96 98 96 95 98 96 91 90 95 100 100 97 98 96 98 97 98 99 100 99 100 99 97 97 98 97 96 96 96 93 91 92 93 91 94 95 95

GFSNW_sfc_rhum_225.txt.gz
RH
89 85 78 71 64 71 72 56 26 40 64 57 90 76 77 69 69 64 67 73 74 79 80 79 76 67 74 70 70 72 74 78 87 63 60 62 74 74 73 86 86 91 89 75
91 88 82 67 60 74 77 62 66 59 48 45 66 69 69 71 65 69 70 74 73 77 79 75 77 76 68 66 72 77 72 72 86 52 61 64 69 63 67 75 74 90 86 64
93 90 86 71 57 68 75 52 41 53 80 82 65 66 61 66 68 72 73 77 78 81 82 81 79 77 74 66 74 66 70 82 69 58 50 68 77 71 73 78 90 78 74 62
94 91 88 80 63 68 55 60 46 76 41 43 79 73 72 66 60 72 76 81 79 81 85 85 83 83 72 66 72 79 81 93 90 82 79 79 79 77 76 86 78 89 77 80
95 92 90 82 72 71 55 35 52 81 48 69 74 64 52 59 64 71 77 80 80 80 83 74 79 82 80 72 72 79 62 76 77 78 58 67 69 62 67 63 67 84 80 76
95 94 92 90 76 65 58 84 72 44 47 70 50 42 42 56 64 73 80 80 85 83 78 77 75 73 72 66 72 68 63 70 82 76 74 72 61 57 49 72 95 92 94 78
96 96 96 92 82 76 77 79 69 36 37 55 55 47 50 65 72 65 78 72 74 62 57 56 65 76 72 74 73 61 70 86 85 93 78 72 46 74 71 86 89 93 88 79
96 97 96 95 87 80 90 91 80 54 37 36 39 47 64 66 62 64 64 62 54 64 64 60 54 54 64 74 74 74 67 75 74 91 90 64 83 66 73 83 93 69 67 70
97 98 97 95 91 85 96 97 88 70 64 51 48 62 69 80 70 62 62 57 58 54 58 57 57 47 53 58 89 73 71 76 72 94 92 77 80 57 62 70 92 67 76 72
97 98 98 96 93 89 93 98 92 95 96 89 80 91 91 81 80 68 74 66 61 55 61 54 57 66 68 70 75 91 90 93 94 91 92 77 53 51 56 92 82 69 68 64
98 99 98 96 94 90 92 99 97 94 98 99 89 88 97 94 86 80 69 62 65 68 73 69 65 74 81 89 81 89 86 92 94 92 97 94 53 49 52 58 68 69 69 66
95 97 98 95 92 89 88 99 95 93 97 100 94 89 76 71 66 78 78 68 85 84 82 88 82 82 95 82 66 63 77 80 85 83 75 55 56 56 60 68 73 70 69 70
94 97 95 92 89 87 88 97 97 97 100 100 99 98 70 62 66 65 85 86 72 72 73 82 80 79 71 81 79 75 65 70 72 57 57 70 73 64 69 72 68 66 72 69
94 94 92 89 87 84 84 96 97 94 95 96 77 54 53 58 59 71 65 70 73 78 80 84 86 74 72 79 71 72 67 75 78 77 74 74 71 74 68 66 69 72 65 68
95 93 90 87 85 84 92 96 96 86 86 91 82 65 70 64 72 79 69 71 77 82 86 92 90 84 80 86 84 92 82 87 89 83 89 90 84 70 67 75 74 72 76 74
92 90 90 87 84 82 95 99 96 87 80 88 95 75 73 63 70 81 82 80 81 79 81 85 84 80 79 90 78 90 91 87 87 90 84 83 78 73 72 77 76 72 69 69
90 89 89 83 77 85 80 84 85 82 78 76 90 94 69 70 82 82 77 75 81 81 86 86 84 86 85 92 94 94 90 90 86 84 85 83 76 85 75 74 69 69 69 68
92 88 83 75 69 74 86 90 76 78 86 84 91 91 90 69 81 94 87 80 87 91 93 95 94 87 90 99 95 92 91 89 86 87 87 88 82 79 74 68 72 78 77 71
89 80 72 82 87 91 97 69 75 87 82 90 92 87 92 81 90 89 95 92 99 95 99 94 85 92 96 88 93 95 95 95 93 88 87 83 84 80 76 79 80 84 80 78
73 77 89 98 99 72 59 71 81 90 95 95 96 96 95 88 98 97 96 98 98 100 90 93 98 92 89 90 92 89 91 91 92 96 89 88 86 83 87 85 81 80 82 84
91 98 99 97 61 76 82 92 85 92 84 95 98 94 99 88 93 97 91 98 98 99 96 94 96 96 94 88 89 90 92 93 94 93 90 88 92 94 91 86 81 80 82 86
88 90 85 88 90 90 78 92 94 93 89 97 98 99 96 98 90 95 98 97 96 99 91 98 97 93 91 90 90 92 93 93 93 90 90 88 85 88 92 90 89 86 84 87
83 88 88 90 92 80 66 72 94 95 96 99 98 96 95 96 94 98 97 97 98 93 98 95 95 93 89 94 92 90 89 90 86 86 84 85 87 82 86 93 86 88 89 85
88 86 91 92 91 84 86 88 93 96 98 97 97 98 96 99 96 99 94 96 94 98 98 96 98 97 97 94 89 92 97 93 93 94 95 94 92 92 85 90 93 94 93 91
86 84 92 92 94 98 99 99 96 97 95 97 97 96 95 97 97 97 94 96 99 96 96 98 98 97 98 97 98 98 98 98 99 97 99 98 96 96 94 91 94 92 90 88
89 91 96 95 96 98 97 97 99 98 97 97 93 96 93 99 97 93 95 94 98 96 98 98 98 97 98 99 99 98 99 100 100 98 99 97 96 98 96 93 94 92 92 92
91 98 92 95 96 99 100 98 98 97 95 96 96 85 85 96 98 99 97 98 96 98 98 98 98 97 99 98 98 98 99 99 97 100 97 98 96 95 94 95 92 93 93 95

GFSNW_sfc_rhum_228.txt.gz
RH
93 90 84 75 66 70 59 48 32 39 45 32 48 46 52 63 50 47 49 50 52 51 54 50 45 42 46 50 52 49 50 50 51 37 43 45 51 48 46 56 65 70 73 49
94 92 86 73 60 68 48 40 37 41 47 32 36 47 51 54 50 50 49 52 54 53 53 45 49 49 48 50 55 53 48 45 47 38 49 49 52 51 51 56 58 62 60 39
94 93 89 79 58 64 49 36 48 39 49 51 31 29 36 43 54 54 55 53 55 56 54 54 51 52 55 51 55 65 60 55 39 32 28 44 54 53 52 54 63 49 48 42
95 94 91 82 69 64 43 40 38 53 46 34 42 41 41 39 38 53 54 57 58 52 50 54 56 57 53 52 58 57 54 49 55 53 54 59 64 63 58 68 60 62 39 42
95 95 93 87 75 69 57 44 51 53 32 52 49 44 36 39 40 45 50 56 55 56 53 40 37 55 54 46 48 57 44 51 56 56 39 43 53 43 45 49 50 49 49 51
96 96 94 89 78 78 64 79 66 51 60 52 39 38 31 40 54 62 63 58 61 66 58 52 49 49 46 44 45 45 46 46 53 46 54 49 41 43 41 48 56 59 63 63
97 97 95 89 84 84 94 86 73 69 78 52 46 38 41 54 63 63 67 65 59 46 40 40 45 48 49 49 49 48 51 58 60 69 50 58 55 65 62 59 76 76 63 50
97 98 97 93 92 86 96 94 90 87 85 46 38 48 61 77 69 75 67 54 44 43 43 42 35 39 48 59 61 59 56 57 58 68 58 40 66 48 55 58 81 60 56 48
96 98 98 97 94 90 97 97 94 94 92 72 44 59 72 83 83 76 56 47 45 43 44 42 74 63 39 46 75 61 62 58 58 66 70 46 62 43 38 48 70 52 52 50
93 97 98 98 96 93 96 98 94 97 98 90 74 89 91 83 81 64 54 52 53 46 52 72 80 69 53 55 61 76 77 72 75 64 66 54 42 38 48 71 63 52 51 50
93 94 98 99 96 93 93 99 98 97 99 97 90 87 93 96 80 79 62 61 60 58 82 86 52 57 60 77 61 69 70 73 72 68 77 76 43 36 44 55 49 48 47 48
93 92 95 98 96 92 89 99 96 96 98 100 95 90 79 69 64 70 72 78 73 78 81 78 73 76 78 68 55 55 73 58 60 62 54 43 46 48 52 50 51 50 52 51
94 92 96 97 94 88 85 98 98 96 99 99 98 95 79 59 61 64 84 86 78 86 69 85 76 81 59 57 57 55 48 52 51 46 44 50 49 50 51 47 52 52 52 53
94 93 96 94 90 83 84 94 94 92 93 95 78 50 58 56 54 69 66 76 73 66 70 76 67 58 53 50 52 58 52 55 53 49 48 47 53 52 50 52 52 52 52 55
94 94 94 92 86 83 90 94 92 84 85 86 67 57 58 55 65 68 61 64 66 66 70 78 74 62 61 64 65 69 62 56 50 42 67 66 58 52 52 57 59 58 59 59
94 95 92 88 85 79 91 98 93 82 76 87 88 64 59 58 68 67 67 66 65 62 65 63 60 65 66 65 51 70 72 68 67 64 63 64 58 55 53 60 61 56 58 57
95 92 90 85 76 85 81 83 84 76 68 69 84 81 59 59 61 61 63 61 67 66 68 71 60 64 67 67 59 69 69 68 66 64 63 59 60 64 59 59 57 60 56 54
92 89 83 77 72 72 83 86 74 70 71 74 86 83 75 57 70 69 66 63 69 73 67 68 64 70 74 84 73 72 72 67 68 66 66 68 64 60 58 56 59 63 62 58
87 78 69 81 87 81 87 68 69 76 74 83 78 82 82 66 77 75 80 72 78 77 76 70 69 71 86 71 74 74 75 75 75 69 66 63 66 64 62 63 63 69 69 66
74 77 86 99 97 70 61 63 69 85 91 87 78 76 83 73 81 87 86 88 86 95 73 80 87 71 80 75 72 71 73 74 74 88 80 76 77 73 72 70 65 68 71 72
93 98 99 93 59 62 63 84 80 84 77 80 82 74 84 74 82 83 80 92 92 97 82 84 83 83 81 77 74 73 74 73 74 75 74 72 78 85 82 75 70 69 71 79
88 88 85 82 82 85 82 86 84 82 68 90 88 85 75 89 77 86 92 89 92 92 81 91 86 85 84 78 77 75 74 74 72 71 74 72 71 73 81 78 80 78 77 81
84 90 90 91 90 94 90 90 83 89 86 94 89 90 86 88 84 94 91 93 91 78 92 85 84 84 80 79 77 76 72 72 70 71 69 70 71 68 73 84 73 77 82 80
95 90 93 90 85 76 71 64 75 84 91 90 84 91 86 91 89 92 88 88 86 94 94 87 86 87 84 79 76 77 82 78 77 85 90 88 84 80 74 83 86 89 88 86
92 89 94 83 89 92 94 94 91 92 89 89 92 90 83 91 91 88 88 95 94 89 88 88 87 92 92 92 90 90 90 91 93 90 96 96 94 90 87 85 89 88 85 84
90 89 92 86 90 95 93 93 95 90 83 85 84 86 86 91 90 88 87 87 88 90 92 91 89 92 93 95 95 95 96 96 96 94 96 94 95 96 95 93 91 92 89 89
88 96 87 90 92 95 94 87 88 88 83 85 85 74 78 92 93 91 89 92 90 92 88 85 89 92 94 96 94 94 95 94 94 95 95 96 94 94 93 95 92 93 90 93